This is the latest recevied weather packets stored in our database for station/object KC3VCX. If no packets are shown the sender has not sent any weather packets the latest 10 day(s).
| Time | Temp. | Humidity | Pressure | Rain* | Wind** | Luminosity | Snow |
|---|---|---|---|---|---|---|---|
| 1776995984 | 20.56° C | 62% | 1014.7 hPa | 0 mm | - | 0 W/m² | - |
| 1776995679 | 20.56° C | 62% | 1014.6 hPa | 0 mm | - | 0 W/m² | - |
| 1776995374 | 20.56° C | 61% | 1014.6 hPa | 0 mm | - | 0 W/m² | - |
| 1776995070 | 20.56° C | 61% | 1014.6 hPa | 0 mm | - | 0 W/m² | - |
| 1776994766 | 20.56° C | 61% | 1014.6 hPa | 0 mm | - | 0 W/m² | - |
| 1776994461 | 20.56° C | 61% | 1014.5 hPa | 0 mm | - | 0 W/m² | - |
| 1776994158 | 21.11° C | 60% | 1014.5 hPa | 0 mm | - | 0 W/m² | - |
| 1776993856 | 21.11° C | 60% | 1014.4 hPa | 0 mm | - | 0 W/m² | - |
| 1776993553 | 21.11° C | 60% | 1014.5 hPa | 0 mm | - | 0 W/m² | - |
| 1776993249 | 21.67° C | 59% | 1014.3 hPa | 0 mm | - | 0 W/m² | - |
| 1776992789 | 21.11° C | 59% | 1014.4 hPa | 0 mm | - | 0 W/m² | - |
| 1776992485 | 21.11° C | 59% | 1014.4 hPa | 0 mm | - | 0 W/m² | - |
| 1776992183 | 21.11° C | 58% | 1014.4 hPa | 0 mm | - | 0 W/m² | - |
| 1776991879 | 21.11° C | 58% | 1014.4 hPa | 0 mm | - | 0 W/m² | - |
| 1776991576 | 20.56° C | 59% | 1014.3 hPa | 0 mm | - | 0 W/m² | - |
| 1776991272 | 20° C | 60% | 1014.4 hPa | 0 mm | - | 0 W/m² | - |
| 1776990968 | 20° C | 60% | 1014.2 hPa | 0 mm | - | 0 W/m² | - |
| 1776990664 | 20.56° C | 59% | 1014.2 hPa | 0 mm | - | 0 W/m² | - |
| 1776990362 | 20.56° C | 59% | 1014.2 hPa | 0 mm | - | 0 W/m² | - |
| 1776990058 | 20.56° C | 58% | 1014.1 hPa | 0 mm | - | 0 W/m² | - |
| 1776989753 | 20.56° C | 58% | 1014 hPa | 0 mm | - | 1 W/m² | - |
| 1776989449 | 21.11° C | 58% | 1014.2 hPa | 0 mm | - | 1 W/m² | - |
| 1776989146 | 21.11° C | 57% | 1014.1 hPa | 0 mm | - | 3 W/m² | - |
| 1776988843 | 21.67° C | 57% | 1014.3 hPa | 0 mm | - | 5 W/m² | - |
| 1776988540 | 21.67° C | 56% | 1014 hPa | 0 mm | - | 6 W/m² | - |
* Rain latest hour (hover to see other rain measurements)
** Current wind speed in m/s (hover to see current wind gust speed)